Weather History for EGTE - October, 2012

Change the Weather History Date:

Wednesday, October 24, 2012

  Actual Average Record
Temperature  
Mean Temperature 56 °F -  
Max Temperature 58 °F 52 °F 63 °F (2014)
Min Temperature 53 °F 40 °F 26 °F (2003)
Degree Days  
Heating Degree Days 10    
Growing Degree Days 6 (Base 50)    
Moisture  
Dew Point 53 °F    
Average Humidity 91    
Maximum Humidity 100    
Minimum Humidity 88    
Precipitation  
Precipitation 0.00 in - - ()
Sea Level Pressure  
Sea Level Pressure 30.04 in    
Wind  
Wind Speed 6 mph ()    
Max Wind Speed 12 mph    
Max Gust Speed -    
Visibility 3.9 miles    
Events      
Averages and records for this station are not official NWS values.
T = Trace of Precipitation, MM = Missing Value Source: Averaged Metar Reports

Daily Weather History Graph

Daily Weather History Graph

Search for Another Location

Airport or City:

Trip Planner

Search our weather history database for the weather conditions in past years. The results will help you decide how hot, cold, wet, or windy it might be!

Date:

Astronomy

Oct. 24, 2012 Rise Set
Actual Time 7:52 AM BST 6:02 PM BST
Civil Twilight 7:18 AM BST 6:36 PM BST
Nautical Twilight 6:39 AM BST 7:14 PM BST
Astronomical Twilight 6:01 AM BST 7:52 PM BST
Moon 3:38 PM BST (10/24) 2:00 AM BST (10/24)
Length of Visible Light 11h 18m
Length of Day
10h 10m
Waxing Gibbous, 74% of the Moon is Illuminated
Oct 24
Waxing Gibbous
Oct 29
Full
Nov 7
Last Quarter
Nov 13
New
Nov 20
First Quarter

Hourly Weather History & Observations

Time (BST) Temp. Dew Point Humidity Pressure Visibility Wind Dir Wind Speed Gust Speed Precip Events Conditions
12:20 AM 55.4 °F 53.6 °F 94% 30.21 in 6.2 mi NNE 4.6 mph - N/A   Mostly Cloudy
12:50 AM 55 °F 55 °F 100%  in - NE 3.5 mph - -  
12:50 AM 55.4 °F 53.6 °F 94% 30.18 in 6.2 mi NNE 4.6 mph - N/A   Mostly Cloudy
3:50 AM 55 °F 55 °F 100%  in - ENE 4.6 mph - -  
6:20 AM 55.4 °F 53.6 °F 94% 30.09 in 5.0 mi NE 5.8 mph - N/A   Mostly Cloudy
6:50 AM 55 °F 55 °F 100%  in - ENE 5.8 mph - -  
6:50 AM 55.4 °F 53.6 °F 94% 30.09 in 5.0 mi NE 5.8 mph - N/A   Mostly Cloudy
7:20 AM 55.4 °F 53.6 °F 94% 30.09 in 3.7 mi NE 5.8 mph - N/A   Light Drizzle
8:20 AM 55.4 °F 51.8 °F 88% 30.09 in 3.7 mi ENE 6.9 mph - N/A   Mostly Cloudy
8:50 AM 55.4 °F 51.8 °F 88% 30.09 in 4.3 mi ENE 6.9 mph - N/A   Mostly Cloudy
9:20 AM 55.4 °F 51.8 °F 88% 30.09 in 5.0 mi NE 4.6 mph - N/A   Mostly Cloudy
9:50 AM 55 °F 53 °F 91%  in - ENE 5.8 mph - -  
9:50 AM 55.4 °F 51.8 °F 88% 30.09 in 5.0 mi ENE 6.9 mph - N/A   Mostly Cloudy
10:20 AM 55.4 °F 51.8 °F 88% 30.09 in 5.0 mi ENE 9.2 mph - N/A   Mostly Cloudy
10:50 AM - - N/A% - 5.0 mi ENE 10.4 mph - N/A   Unknown
11:20 AM 53.6 °F 51.8 °F 94% 30.09 in 3.7 mi NE 9.2 mph - N/A   Mostly Cloudy
11:50 AM 53.6 °F 51.8 °F 94% 30.09 in 3.1 mi ENE 9.2 mph - N/A   Mostly Cloudy
12:20 PM 53.6 °F 51.8 °F 94% 30.09 in 3.1 mi ENE 11.5 mph - N/A   Mostly Cloudy
12:50 PM 55 °F 54 °F 98%  in - East 5.8 mph - -  
12:50 PM 55.4 °F 51.8 °F 88% 30.06 in 2.5 mi ENE 8.1 mph - N/A   Mostly Cloudy
1:20 PM 55.4 °F 53.6 °F 94% 30.06 in 2.5 mi ENE 8.1 mph - N/A   Mostly Cloudy
1:50 PM 55.4 °F 53.6 °F 94% 30.06 in 3.1 mi ENE 8.1 mph - N/A   Mostly Cloudy
2:20 PM 55.4 °F 53.6 °F 94% 30.04 in 3.1 mi NE 6.9 mph - N/A   Mostly Cloudy
2:50 PM 55.4 °F 53.6 °F 94% 30.04 in 3.1 mi NE 8.1 mph - N/A   Mostly Cloudy
3:20 PM 55.4 °F 53.6 °F 94% 30.01 in 3.1 mi NE 5.8 mph - N/A   Mostly Cloudy
3:50 PM 57 °F 56 °F 93%  in - ENE 5.8 mph - -  
3:50 PM 57.2 °F 53.6 °F 88% 30.01 in 4.3 mi NE 6.9 mph - N/A   Mostly Cloudy
4:20 PM 57.2 °F 53.6 °F 88% 30.01 in 4.3 mi NE 6.9 mph - N/A   Mostly Cloudy
4:50 PM 57.2 °F 53.6 °F 88% 30.01 in 4.3 mi NE 9.2 mph - N/A   Mostly Cloudy
5:20 PM 57.2 °F 53.6 °F 88% 29.98 in 3.7 mi NE 10.4 mph - N/A   Mostly Cloudy
5:50 PM 57.2 °F 53.6 °F 88% 29.98 in 3.1 mi NE 9.2 mph - N/A   Haze
6:20 PM 57.2 °F 53.6 °F 88% 29.98 in 3.7 mi NE 9.2 mph - N/A   Mostly Cloudy
6:50 PM 58 °F 56 °F 90%  in - NE 5.8 mph - -  
6:50 PM 57.2 °F 53.6 °F 88% 29.98 in 4.3 mi NE 6.9 mph - N/A   Mostly Cloudy
7:20 PM 57.2 °F 53.6 °F 88% 29.98 in 3.7 mi NE 8.1 mph - N/A   Mostly Cloudy
7:50 PM 57.2 °F 53.6 °F 88% 29.98 in 3.7 mi NE 10.4 mph - N/A   Mostly Cloudy
8:20 PM 57.2 °F 53.6 °F 88% 29.98 in 3.7 mi NE 10.4 mph - N/A   Mostly Cloudy
8:50 PM 57.2 °F 53.6 °F 88% 29.98 in 3.7 mi ENE 11.5 mph - N/A   Mostly Cloudy
9:20 PM 57.2 °F 53.6 °F 88% 29.98 in 3.7 mi ENE 9.2 mph - N/A   Mostly Cloudy
9:50 PM 58 °F 56 °F 89%  in - NE 6.9 mph - -  
9:50 PM 57.2 °F 53.6 °F 88% 29.98 in 3.7 mi NE 9.2 mph - N/A   Mostly Cloudy
10:20 PM 57.2 °F 53.6 °F 88% 29.98 in 3.7 mi ENE 10.4 mph - N/A   Mostly Cloudy
10:50 PM 57.2 °F 53.6 °F 88% 29.98 in 3.7 mi ENE 9.2 mph - N/A   Mostly Cloudy
11:20 PM 57.2 °F 53.6 °F 88% 29.98 in 3.7 mi ENE 8.1 mph - N/A   Mostly Cloudy
11:50 PM 57.2 °F 53.6 °F 88% 29.98 in 3.7 mi ENE 9.2 mph - N/A   Mostly Cloudy